AJT8V CYQB-CYUL

Flight info

Callsign AJT8V
Flight time 0h 30m
Altitude 16000
Route CYQB6/06 TIBOS ROCKT3
Aircraft B722/M-SDFGHRWY/C

Departure

Time 2026-05-07 20:06
Airport Quebec Jean Lesage International Airport (CYQB)

Arrival

Time 2026-05-07 20:36
Airport Montreal / Pierre Elliott Trudeau International Airport (CYUL)
Time Latitude Longitude Altitude Speed Heading
2026-05-07 19:33 46.78980 -71.38301 256 ft 0 kts 315°
2026-05-07 19:56 46.78982 -71.38306 256 ft 1 kts 297°
2026-05-07 19:57 46.78980 -71.38317 256 ft 1 kts 225°
2026-05-07 19:57 46.78961 -71.38331 256 ft 7 kts 211°
2026-05-07 19:57 46.78942 -71.38425 256 ft 11 kts 277°
2026-05-07 19:57 46.78959 -71.38531 256 ft 10 kts 304°
2026-05-07 19:58 46.79011 -71.38587 256 ft 9 kts 327°
2026-05-07 19:58 46.79061 -71.38623 256 ft 7 kts 349°
2026-05-07 19:58 46.79107 -71.38622 256 ft 6 kts
2026-05-07 19:58 46.79133 -71.38615 256 ft 5 kts 14°
2026-05-07 19:59 46.79172 -71.38602 256 ft 6 kts 13°
2026-05-07 19:59 46.79213 -71.38589 256 ft 6 kts 11°
2026-05-07 19:59 46.79257 -71.38577 256 ft 6 kts 10°
2026-05-07 19:59 46.79300 -71.38566 256 ft 6 kts
2026-05-07 20:00 46.79344 -71.38553 256 ft 6 kts 16°
2026-05-07 20:00 46.79382 -71.38526 256 ft 6 kts 39°
2026-05-07 20:00 46.79413 -71.38484 256 ft 6 kts 45°
2026-05-07 20:00 46.79446 -71.38435 256 ft 8 kts 45°
2026-05-07 20:01 46.79487 -71.38374 256 ft 9 kts 45°
2026-05-07 20:01 46.79539 -71.38312 256 ft 10 kts 23°
2026-05-07 20:01 46.79604 -71.38263 256 ft 11 kts 43°
2026-05-07 20:01 46.79663 -71.38179 256 ft 12 kts 45°
2026-05-07 20:02 46.79721 -71.38096 256 ft 11 kts 43°
2026-05-07 20:02 46.79781 -71.38048 256 ft 9 kts 11°
2026-05-07 20:02 46.79837 -71.38044 256 ft 7 kts 360°
2026-05-07 20:02 46.79880 -71.38044 256 ft 5 kts 359°
2026-05-07 20:03 46.79911 -71.38047 256 ft 4 kts 351°
2026-05-07 20:03 46.79933 -71.38058 256 ft 3 kts 331°
2026-05-07 20:03 46.79951 -71.38077 256 ft 3 kts 316°
2026-05-07 20:03 46.79965 -71.38100 256 ft 3 kts 307°
2026-05-07 20:04 46.79976 -71.38132 256 ft 4 kts 266°
2026-05-07 20:04 46.79957 -71.38170 256 ft 7 kts 226°
2026-05-07 20:04 46.79950 -71.38179 256 ft 0 kts 225°
2026-05-07 20:04 46.79950 -71.38180 256 ft 1 kts 226°
2026-05-07 20:05 46.79914 -71.38232 256 ft 25 kts 225°
2026-05-07 20:05 46.79642 -71.38622 256 ft 83 kts 224°
2026-05-07 20:05 46.79108 -71.39391 256 ft 130 kts 224°
2026-05-07 20:05 46.78384 -71.40407 460 ft 151 kts 229°
2026-05-07 20:06 46.77595 -71.41450 999 ft 153 kts 226°
2026-05-07 20:06 46.76805 -71.42480 1638 ft 155 kts 227°
2026-05-07 20:06 46.76002 -71.43544 2238 ft 156 kts 224°
2026-05-07 20:06 46.75195 -71.44638 2818 ft 159 kts 226°
2026-05-07 20:07 46.74370 -71.45706 3354 ft 164 kts 225°
2026-05-07 20:07 46.73514 -71.46813 3948 ft 165 kts 227°
2026-05-07 20:07 46.72568 -71.48021 4028 ft 197 kts 225°
2026-05-07 20:07 46.71369 -71.49361 4029 ft 241 kts 218°
2026-05-07 20:08 46.69900 -71.50770 4913 ft 247 kts 217°
2026-05-07 20:08 46.68476 -71.52135 6204 ft 250 kts 217°
2026-05-07 20:08 46.66995 -71.53561 7247 ft 256 kts 216°
2026-05-07 20:08 46.65524 -71.54964 8366 ft 260 kts 216°
2026-05-07 20:09 46.64000 -71.56417 9470 ft 262 kts 217°
2026-05-07 20:09 46.62471 -71.57870 10446 ft 265 kts 216°
2026-05-07 20:09 46.60907 -71.59353 11367 ft 269 kts 216°
2026-05-07 20:10 46.57809 -71.62296 13166 ft 277 kts 216°
2026-05-07 20:10 46.56183 -71.63843 14012 ft 280 kts 216°
2026-05-07 20:10 46.54557 -71.65388 14854 ft 282 kts 216°
2026-05-07 20:10 46.52909 -71.66954 15672 ft 284 kts 216°
2026-05-07 20:11 46.51217 -71.68573 15998 ft 304 kts 217°
2026-05-07 20:11 46.49371 -71.70350 16022 ft 332 kts 216°
2026-05-07 20:11 46.47367 -71.72268 16027 ft 359 kts 216°
2026-05-07 20:11 46.45207 -71.74351 16027 ft 385 kts 216°
2026-05-07 20:12 46.42917 -71.76572 16027 ft 408 kts 216°
2026-05-07 20:12 46.40507 -71.78869 16025 ft 416 kts 216°
2026-05-07 20:12 46.38186 -71.81378 16022 ft 417 kts 222°
2026-05-07 20:12 46.36076 -71.84250 16024 ft 417 kts 227°
2026-05-07 20:13 46.34005 -71.87210 16022 ft 419 kts 226°
2026-05-07 20:13 46.31915 -71.90162 16023 ft 421 kts 226°
2026-05-07 20:13 46.29783 -71.93071 16024 ft 421 kts 225°
2026-05-07 20:13 46.27666 -71.95959 16030 ft 417 kts 226°
2026-05-07 20:14 46.25574 -71.98845 16028 ft 413 kts 225°
2026-05-07 20:14 46.23496 -72.01677 16026 ft 410 kts 226°
2026-05-07 20:14 46.21437 -72.04528 16008 ft 408 kts 226°
2026-05-07 20:14 46.19375 -72.07337 15945 ft 408 kts 226°
2026-05-07 20:15 46.17323 -72.10170 15931 ft 407 kts 226°
2026-05-07 20:15 46.15279 -72.12976 15935 ft 405 kts 226°
2026-05-07 20:15 46.13247 -72.15776 15937 ft 403 kts 226°
2026-05-07 20:15 46.11214 -72.18551 15937 ft 402 kts 226°
2026-05-07 20:16 46.09189 -72.21322 15934 ft 400 kts 226°
2026-05-07 20:16 46.07162 -72.24067 15937 ft 399 kts 226°
2026-05-07 20:16 46.05172 -72.26786 15467 ft 398 kts 225°
2026-05-07 20:16 46.03180 -72.29473 15014 ft 386 kts 226°
2026-05-07 20:17 46.01256 -72.32103 14557 ft 377 kts 226°
2026-05-07 20:17 45.99382 -72.34654 14103 ft 369 kts 226°
2026-05-07 20:17 45.97525 -72.37178 13644 ft 363 kts 226°
2026-05-07 20:17 45.95706 -72.39717 13149 ft 356 kts 230°
2026-05-07 20:18 45.94246 -72.42464 12656 ft 348 kts 239°
2026-05-07 20:18 45.93091 -72.45490 12173 ft 342 kts 246°
2026-05-07 20:18 45.92032 -72.48533 11699 ft 339 kts 245°
2026-05-07 20:18 45.90973 -72.51527 11232 ft 336 kts 245°
2026-05-07 20:19 45.89913 -72.54524 10761 ft 334 kts 244°
2026-05-07 20:19 45.88840 -72.57471 10297 ft 332 kts 244°
2026-05-07 20:19 45.87784 -72.60378 10037 ft 325 kts 244°
2026-05-07 20:19 45.86741 -72.63219 9787 ft 318 kts 244°
2026-05-07 20:20 45.85708 -72.65995 9521 ft 313 kts 244°
2026-05-07 20:20 45.84700 -72.68703 9240 ft 301 kts 244°
2026-05-07 20:20 45.83733 -72.71294 8958 ft 288 kts 244°
2026-05-07 20:20 45.82806 -72.73788 8686 ft 279 kts 244°
2026-05-07 20:21 45.81899 -72.76202 8407 ft 271 kts 245°
2026-05-07 20:21 45.81029 -72.78550 8134 ft 263 kts 245°
2026-05-07 20:21 45.80186 -72.80839 7970 ft 253 kts 245°
2026-05-07 20:21 45.79381 -72.83020 7958 ft 243 kts 245°
2026-05-07 20:22 45.78604 -72.85127 7955 ft 238 kts 244°
2026-05-07 20:22 45.77836 -72.87202 7963 ft 235 kts 244°
2026-05-07 20:22 45.77071 -72.89260 7961 ft 232 kts 245°
2026-05-07 20:22 45.76332 -72.91266 7969 ft 230 kts 244°
2026-05-07 20:23 45.75584 -72.93282 7972 ft 228 kts 245°
2026-05-07 20:23 45.74846 -72.95295 7971 ft 230 kts 244°
2026-05-07 20:23 45.74088 -72.97324 7977 ft 233 kts 244°
2026-05-07 20:23 45.73316 -72.99387 7980 ft 238 kts 244°
2026-05-07 20:24 45.72483 -73.01463 7986 ft 244 kts 236°
2026-05-07 20:24 45.71097 -73.02917 7983 ft 258 kts 202°
2026-05-07 20:24 45.69583 -73.03440 7989 ft 265 kts 198°
2026-05-07 20:24 45.67777 -73.04025 7990 ft 267 kts 200°
2026-05-07 20:25 45.66178 -73.05233 7987 ft 258 kts 230°
2026-05-07 20:25 45.65326 -73.07425 7995 ft 254 kts 254°
2026-05-07 20:25 45.65020 -73.09896 7996 ft 251 kts 274°
2026-05-07 20:25 45.65337 -73.12307 7993 ft 244 kts 285°
2026-05-07 20:26 45.65663 -73.14634 7988 ft 236 kts 273°
2026-05-07 20:26 45.65619 -73.16943 7985 ft 230 kts 266°
2026-05-07 20:26 45.65507 -73.19197 7976 ft 225 kts 267°
2026-05-07 20:26 45.65401 -73.21453 7576 ft 233 kts 267°
2026-05-07 20:27 45.65281 -73.23792 7063 ft 239 kts 266°
2026-05-07 20:27 45.65157 -73.26021 6595 ft 243 kts 266°
2026-05-07 20:27 45.65059 -73.27942 6198 ft 245 kts 266°
2026-05-07 20:27 45.64920 -73.30382 5651 ft 236 kts 266°
2026-05-07 20:28 45.64792 -73.32681 5123 ft 229 kts 266°
2026-05-07 20:28 45.64666 -73.34916 4597 ft 222 kts 266°
2026-05-07 20:28 45.64545 -73.37092 4141 ft 215 kts 266°
2026-05-07 20:28 45.64441 -73.39185 3739 ft 208 kts 267°
2026-05-07 20:29 45.64357 -73.41228 3330 ft 203 kts 267°
2026-05-07 20:29 45.64274 -73.43210 2981 ft 195 kts 267°
2026-05-07 20:29 45.64199 -73.45035 2968 ft 174 kts 267°
2026-05-07 20:29 45.64129 -73.46715 2979 ft 167 kts 267°
2026-05-07 20:30 45.64060 -73.48372 2986 ft 168 kts 267°
2026-05-07 20:30 45.63991 -73.49999 2987 ft 170 kts 267°
2026-05-07 20:30 45.63929 -73.51445 2992 ft 169 kts 267°
2026-05-07 20:30 45.63720 -73.53075 2987 ft 169 kts 247°
2026-05-07 20:31 45.63002 -73.54407 2995 ft 172 kts 226°
2026-05-07 20:31 45.62088 -73.55488 2991 ft 170 kts 227°
2026-05-07 20:31 45.61230 -73.56620 2987 ft 166 kts 230°
2026-05-07 20:31 45.60398 -73.57740 2975 ft 163 kts 228°
2026-05-07 20:32 45.59570 -73.58810 2978 ft 159 kts 229°
2026-05-07 20:32 45.58768 -73.59886 2964 ft 156 kts 228°
2026-05-07 20:32 45.57965 -73.60921 2812 ft 152 kts 230°
2026-05-07 20:32 45.57232 -73.61903 2605 ft 139 kts 229°
2026-05-07 20:33 45.56540 -73.62782 2421 ft 128 kts 231°
2026-05-07 20:33 45.55920 -73.63614 2248 ft 118 kts 232°
2026-05-07 20:33 45.55334 -73.64392 2080 ft 112 kts 230°
2026-05-07 20:33 45.54752 -73.65155 1943 ft 122 kts 231°
2026-05-07 20:34 45.54104 -73.66018 1861 ft 134 kts 231°
2026-05-07 20:34 45.53427 -73.66947 1662 ft 135 kts 231°
2026-05-07 20:34 45.52749 -73.67836 1417 ft 129 kts 229°
2026-05-07 20:34 45.52092 -73.68679 1229 ft 125 kts 230°
2026-05-07 20:35 45.51447 -73.69515 1062 ft 131 kts 230°
2026-05-07 20:35 45.50724 -73.70467 864 ft 150 kts 228°
2026-05-07 20:35 45.49945 -73.71468 611 ft 149 kts 229°
2026-05-07 20:35 45.49214 -73.72424 397 ft 135 kts 231°
2026-05-07 20:36 45.48522 -73.73333 221 ft 136 kts 228°
2026-05-07 20:36 45.47876 -73.74189 116 ft 110 kts 221°
2026-05-07 20:36 45.47449 -73.74748 115 ft 64 kts 223°
2026-05-07 20:36 45.47199 -73.75075 116 ft 42 kts 222°
2026-05-07 20:37 45.46993 -73.75345 113 ft 39 kts 222°
2026-05-07 20:37 45.46813 -73.75544 111 ft 27 kts 206°
2026-05-07 20:37 45.46667 -73.75610 110 ft 17 kts 193°
2026-05-07 20:37 45.46578 -73.75641 109 ft 10 kts 193°
2026-05-07 20:38 45.46516 -73.75660 108 ft 8 kts 190°
2026-05-07 20:38 45.46461 -73.75677 108 ft 6 kts 193°
2026-05-07 20:38 45.46421 -73.75690 107 ft 3 kts 194°
2026-05-07 20:38 45.46418 -73.75691 107 ft 0 kts 194°
2026-05-07 20:39 45.46406 -73.75695 106 ft 6 kts 194°
2026-05-07 20:40 45.46348 -73.75714 107 ft 10 kts 193°
2026-05-07 20:40 45.46274 -73.75726 108 ft 12 kts 181°
2026-05-07 20:40 45.46177 -73.75718 106 ft 15 kts 174°
2026-05-07 20:40 45.46136 -73.75640 105 ft 12 kts 87°
2026-05-07 20:41 45.46138 -73.75600 105 ft 0 kts 86°
2026-05-07 20:41 45.46138 -73.75596 105 ft 1 kts 86°
2026-05-07 20:41 45.46138 -73.75558 105 ft 7 kts 91°
2026-05-07 20:41 45.46139 -73.75478 105 ft 7 kts 88°
2026-05-07 20:42 45.46131 -73.75388 105 ft 11 kts 128°
2026-05-07 20:42 45.46055 -73.75347 108 ft 13 kts 137°
2026-05-07 20:42 45.46010 -73.75229 108 ft 13 kts 106°
2026-05-07 20:42 45.46007 -73.75156 108 ft 12 kts 88°
2026-05-07 20:43 45.46026 -73.75075 108 ft 9 kts 41°
2026-05-07 20:43 45.46060 -73.75036 108 ft 0 kts 38°
2026-05-07 20:43 45.46075 -73.75019 107 ft 3 kts 38°
2026-05-07 20:43 45.46080 -73.75013 108 ft 2 kts 38°
2026-05-07 20:44 45.46095 -73.74997 108 ft 0 kts 37°